Theta_e
341 341 342 345 348 349 349 352 352 352 352 352 351 352 351 351 350 350 350 350 349 347 348 347 347 346 347 347 347 345 345 343 343 344 344 343 342 342 342 341 343 343 341 342 340 343 343 344 346 346 347 347 346 343 340 340 340 341 334 334 339 337
342 342 342 344 344 348 349 350 351 351 350 351 351 351 351 351 354 351 351 350 350 351 350 348 350 351 349 347 346 347 345 344 344 344 343 344 344 344 342 343 342 342 342 341 342 338 337 343 345 345 347 347 344 340 339 340 341 339 336 335 338 341
344 344 344 342 343 346 348 349 349 350 351 351 352 352 351 352 351 351 350 350 351 351 349 351 350 349 350 349 348 347 347 346 345 345 345 343 344 344 345 345 344 344 344 343 339 334 332 332 338 346 347 346 342 341 340 341 341 339 335 339 337 345
345 345 342 341 343 344 346 347 347 349 350 350 351 351 351 350 350 349 350 351 351 351 348 347 339 343 349 347 346 348 348 347 347 346 345 345 345 344 345 345 345 345 344 341 333 330 330 331 335 340 342 344 342 341 341 341 340 337 336 337 338 347
345 344 342 341 342 341 346 344 345 348 349 349 350 350 349 349 349 348 350 350 347 352 347 346 342 346 346 345 343 345 346 346 346 344 347 343 344 342 344 342 342 344 341 337 332 329 328 328 341 341 341 341 342 341 341 341 339 338 336 339 341 347
345 344 343 341 341 342 345 341 343 346 348 347 348 347 347 347 351 355 354 349 354 350 352 351 347 347 348 348 346 346 344 346 347 348 347 343 345 346 346 342 341 340 338 337 336 333 332 335 338 340 342 342 342 342 340 339 338 339 335 341 339 347
344 346 343 342 342 343 343 345 344 344 345 344 345 345 344 345 346 351 353 353 349 349 348 350 351 353 350 354 351 353 349 349 347 346 349 346 346 346 344 347 344 343 343 342 341 338 337 337 335 333 332 332 334 337 336 336 335 334 335 341 341 348
345 345 344 344 344 342 343 343 346 345 343 343 343 343 346 348 346 348 353 351 350 347 343 353 353 352 351 353 353 349 350 351 351 348 347 347 345 345 347 345 344 345 345 344 342 343 340 337 336 336 337 336 334 331 334 336 336 336 335 336 340 346
346 345 345 348 343 343 347 345 347 344 348 347 349 347 353 346 344 348 350 350 347 352 354 352 349 348 349 350 351 355 353 351 352 350 350 350 349 348 348 347 347 346 345 343 343 343 342 341 340 339 336 334 335 335 333 336 336 337 336 334 343 341
346 346 347 346 341 344 349 350 349 349 352 346 352 351 348 344 348 344 345 348 356 356 355 352 351 355 351 353 355 354 355 353 354 352 352 352 351 351 347 346 346 344 341 340 340 341 342 341 340 339 338 336 338 336 337 335 336 337 335 336 338 345
346 347 344 344 343 346 347 348 345 349 344 347 351 348 346 347 351 353 354 357 355 356 356 354 352 351 353 351 355 354 353 353 351 353 354 349 351 349 349 347 345 344 343 342 342 343 341 340 340 339 340 339 337 337 336 336 335 336 337 337 336 342
345 348 344 342 347 343 346 344 343 349 341 348 349 345 349 351 350 351 353 354 354 355 355 359 354 353 352 350 352 353 353 353 353 352 352 349 348 348 346 343 345 345 345 345 343 344 344 342 341 340 341 338 340 339 337 335 335 335 334 339 340 340
346 346 344 347 346 344 347 343 346 343 345 349 346 349 350 349 349 349 353 351 352 352 355 353 357 354 352 352 352 353 351 351 351 353 352 349 347 347 346 346 345 346 345 342 341 341 341 340 340 340 341 339 340 341 338 338 337 336 339 346 342 341
343 344 346 348 346 344 348 345 346 346 349 348 353 351 353 350 353 350 350 351 354 352 354 357 357 355 352 351 352 352 349 351 351 350 349 350 348 348 345 344 343 342 343 341 339 339 339 338 338 338 338 339 339 340 341 339 339 339 341 343 342 339
343 344 348 346 345 349 349 345 348 347 346 352 349 350 343 347 353 350 352 351 351 353 353 350 352 352 352 350 347 352 350 349 352 349 347 350 348 345 344 342 341 340 339 339 338 338 337 336 337 336 337 339 338 339 341 340 339 340 340 339 343 343
343 345 346 346 348 349 350 351 349 348 347 344 342 340 347 345 343 345 348 349 350 351 351 353 354 354 353 351 349 348 351 352 351 349 349 348 346 343 342 343 342 341 338 337 336 336 336 335 335 335 336 336 336 337 339 340 339 339 342 342 341 340
342 344 345 345 347 349 350 344 343 342 341 341 342 343 346 343 342 338 345 348 350 353 354 354 355 354 357 351 351 349 348 350 350 347 347 347 344 345 342 342 341 341 340 336 336 335 335 335 335 335 335 335 336 336 336 337 339 342 342 339 339 339
344 345 346 346 348 345 344 344 340 339 341 340 340 343 345 341 341 339 343 348 352 353 356 352 352 354 359 351 350 349 349 348 347 347 346 345 344 344 344 340 338 340 339 338 335 334 334 334 335 335 335 336 337 337 337 336 337 338 339 338 339 339
343 344 345 347 343 343 343 344 342 341 342 342 342 342 344 342 341 341 340 350 351 353 355 354 352 351 349 346 345 346 345 346 347 345 345 340 338 338 340 339 337 336 339 338 336 335 335 334 334 334 334 335 336 336 337 337 337 335 336 337 339 339
347 348 346 344 342 340 342 341 340 342 342 340 340 341 342 340 340 340 341 351 351 352 350 352 352 350 350 347 346 343 344 344 342 342 340 338 337 336 337 337 337 336 335 335 335 336 335 333 332 332 332 334 334 335 336 337 337 337 338 338 335 337
343 345 344 341 341 340 340 339 340 339 338 340 341 339 337 339 339 337 345 350 352 352 348 346 344 344 342 345 343 342 341 342 339 339 338 338 338 338 338 338 337 336 334 331 331 334 334 333 329 328 330 330 331 334 334 334 335 337 337 337 339 341
343 342 344 343 341 341 341 340 338 337 338 339 341 337 336 336 335 340 347 346 347 345 345 343 343 343 343 343 341 340 340 339 339 338 338 338 338 338 338 336 335 333 334 330 329 332 335 330 327 325 324 325 327 330 332 333 335 337 339 338 337 336
342 341 341 341 340 337 340 339 339 338 338 337 338 337 335 337 338 344 346 344 343 342 342 343 343 345 344 340 339 338 338 338 337 337 336 335 336 335 335 334 333 331 329 331 330 334 334 333 325 327 327 324 321 321 324 328 334 330 331 334 337 334
340 340 339 339 340 339 339 341 340 339 339 338 336 337 336 336 340 345 341 343 342 344 342 341 339 338 337 338 338 336 336 337 336 337 337 334 334 331 332 332 332 332 331 327 327 329 333 334 331 326 320 321 321 321 316 319 322 326 329 330 337 336
340 339 340 339 339 339 339 339 340 339 338 335 335 332 334 338 341 339 340 340 340 340 339 338 338 337 335 335 336 337 337 337 338 338 337 335 334 333 332 332 332 332 331 329 327 329 331 334 333 334 326 322 319 317 316 320 322 322 330 327 328 332
340 341 340 340 340 339 339 339 336 333 331 331 331 333 335 338 339 338 337 340 339 337 336 336 336 335 335 335 337 337 337 336 337 337 338 336 335 336 334 332 332 332 331 332 330 328 327 331 333 334 335 332 326 319 319 322 320 315 324 328 328 329
340 340 340 340 340 340 338 336 334 332 332 330 328 332 336 342 341 340 341 339 337 337 335 337 338 336 335 337 337 338 338 337 335 336 336 337 335 333 333 333 333 332 332 332 332 327 327 328 330 332 332 332 331 330 330 322 317 320 316 321 325 326
340 338 339 340 340 340 336 336 334 332 330 331 329 328 332 340 340 339 339 337 336 336 338 339 336 335 336 337 336 337 337 336 336 335 334 333 332 333 334 334 334 335 334 334 332 329 328 329 325 326 329 329 329 331 331 330 327 322 319 316 318 324
339 339 340 339 339 338 337 337 335 335 332 333 332 330 334 341 339 339 336 336 335 337 340 337 336 336 335 334 335 335 335 335 334 333 332 332 332 332 332 332 332 333 332 332 333 332 330 328 328 326 326 326 327 327 327 326 327 325 320 317 316 318
339 340 340 340 340 337 336 336 333 332 331 329 329 332 339 338 338 337 335 337 335 337 337 336 338 335 334 333 334 333 333 333 333 332 332 331 331 331 332 332 333 333 332 332 331 331 330 329 329 329 328 327 324 324 323 323 323 323 322 322 317 317
337 339 339 337 337 334 334 336 335 333 331 332 333 336 336 336 336 336 333 333 334 333 334 335 338 334 333 332 333 333 333 332 332 331 330 330 330 330 331 332 333 333 332 331 330 330 329 329 329 328 327 326 324 324 322 320 321 322 321 319 318 318
336 336 336 336 335 335 335 335 335 333 331 331 334 336 335 332 333 332 334 333 332 332 332 334 333 331 330 331 332 332 331 330 330 329 329 330 331 331 331 332 332 331 330 330 330 329 328 327 325 325 325 324 323 324 324 323 323 323 323 322 320 318
333 335 335 335 336 336 337 337 337 335 335 336 336 334 332 333 334 335 331 329 330 329 331 330 329 328 328 329 330 329 329 328 328 329 329 329 329 330 331 332 330 327 327 327 327 325 324 324 323 323 323 324 323 324 323 323 323 322 323 323 322 318
333 334 334 336 337 336 337 336 336 335 335 335 334 334 334 335 331 330 330 329 329 329 329 328 327 327 328 328 329 328 328 328 328 328 328 328 329 330 330 329 327 326 326 327 327 324 324 324 323 323 324 322 321 322 322 323 323 323 322 321 319 318
332 333 333 335 335 335 334 335 335 334 334 334 333 331 330 330 331 329 328 328 328 329 328 326 326 328 328 329 328 328 327 327 327 328 328 328 329 328 327 327 326 326 326 327 325 324 323 324 322 322 322 321 321 321 321 321 322 322 322 321 321 320
333 332 333 334 333 333 333 333 334 333 333 331 330 330 329 329 330 330 328 327 327 327 327 326 328 329 328 327 327 327 327 327 328 329 329 328 327 326 326 325 324 324 323 325 323 322 321 322 321 321 321 320 320 319 320 321 321 322 322 322 321 321
333 333 334 333 332 331 331 331 331 332 330 330 329 328 328 328 328 328 328 327 326 326 327 328 327 328 327 327 329 330 328 329 328 328 326 326 326 325 325 324 323 322 321 322 322 321 320 320 320 320 319 319 318 318 318 320 320 321 321 321 321 321
Wind_Speed
11 11 11 9 8 8 10 13 12 13 14 14 13 13 13 12 10 10 10 9 8 6 5 5 7 6 9 6 8 9 7 6 4 5 5 5 5 6 6 7 6 7 7 7 8 9 9 10 10 10 10 10 10 5 6 7 8 8 5 3 8 7
10 11 10 8 7 7 8 9 10 10 10 10 11 12 10 7 9 7 9 6 5 5 6 5 5 9 5 7 7 8 7 6 6 5 5 6 6 7 7 7 8 8 8 8 9 5 5 9 12 11 10 11 6 5 6 7 8 8 7 1 6 9
10 10 10 9 7 7 9 6 10 9 7 10 10 10 7 7 7 7 7 6 6 6 5 5 5 4 4 7 8 10 9 10 9 9 9 8 8 9 9 10 11 10 10 11 6 5 5 6 7 11 10 6 5 5 6 7 8 6 5 2 6 13
11 11 9 7 7 7 7 7 7 7 7 6 7 7 7 6 6 6 7 6 6 6 4 3 2 3 5 4 6 9 11 10 9 9 9 6 7 8 10 10 11 10 7 5 4 5 6 7 6 5 6 6 6 6 6 7 7 5 6 4 6 15
11 10 9 7 8 7 7 6 7 7 6 6 6 6 5 5 5 6 5 6 5 1 3 4 2 2 3 4 4 4 4 4 4 5 8 5 4 6 6 6 5 6 5 5 6 6 7 8 3 6 6 7 7 7 6 6 7 5 3 2 8 13
9 9 7 7 6 7 8 6 7 7 7 6 6 5 5 5 3 2 1 1 2 1 1 2 3 4 4 4 5 4 5 5 5 4 6 5 5 4 3 4 5 5 5 5 7 6 7 7 3 5 7 8 7 6 5 5 6 5 6 2 8 13
8 6 9 9 8 7 5 4 5 7 7 6 6 6 6 5 4 3 1 2 3 1 2 2 1 1 1 1 0 1 3 3 3 2 2 4 2 3 4 4 3 4 4 5 7 7 4 5 5 6 5 5 4 6 6 6 5 5 5 2 7 14
8 7 6 7 7 7 6 7 4 6 6 6 5 4 4 3 5 3 1 2 2 3 4 1 1 1 2 1 2 3 3 2 2 3 5 4 5 4 4 5 5 5 4 5 6 4 5 6 7 6 3 3 6 7 5 5 5 4 4 4 7 10
6 6 5 4 6 4 3 4 3 4 3 5 2 4 3 5 5 3 2 2 5 2 0 1 3 3 3 2 2 1 2 1 1 1 2 3 1 2 3 3 3 2 3 4 3 3 3 5 6 7 5 6 6 5 6 4 4 5 4 5 3 8
6 5 4 4 5 3 3 2 2 2 3 4 2 1 4 5 3 4 4 4 1 2 0 2 2 2 2 1 1 1 0 0 1 2 2 1 1 2 3 2 3 3 4 5 4 4 4 5 6 6 6 7 4 6 4 5 4 4 6 4 2 6
6 5 6 3 4 4 3 3 3 2 5 2 2 4 4 4 3 3 1 1 1 1 2 2 3 2 2 3 1 0 1 2 2 1 1 2 2 2 2 3 3 3 3 4 4 4 5 4 5 6 6 6 6 6 7 4 5 4 3 3 4 1
7 6 7 6 3 6 3 4 4 2 4 2 4 4 2 2 4 2 0 2 2 2 1 1 2 1 1 2 1 1 1 1 1 1 1 2 2 2 3 3 4 4 3 3 4 4 4 5 5 6 5 7 5 5 4 6 8 5 7 3 1 1
6 7 5 4 5 4 3 5 3 4 3 4 4 2 2 3 3 2 4 3 3 2 2 2 0 1 0 1 1 1 2 1 1 1 1 2 3 3 3 3 3 3 3 4 4 4 5 4 4 5 6 7 5 3 5 3 4 7 4 1 1 2
9 7 4 5 5 4 3 3 4 4 4 4 2 3 1 3 1 3 3 3 2 3 2 0 1 1 2 2 1 0 1 1 0 1 2 2 2 2 3 3 3 3 4 4 4 4 4 4 4 5 5 5 5 4 4 4 4 3 3 2 1 1
8 5 3 6 4 2 3 4 3 4 5 2 3 6 5 3 4 1 1 2 3 2 2 3 2 1 1 2 2 1 1 2 1 2 3 1 2 4 3 3 4 4 4 4 4 5 5 5 5 6 5 4 5 5 3 4 4 6 6 5 5 4
7 4 4 6 3 4 3 3 4 6 7 8 7 6 4 2 6 7 4 3 3 3 3 2 0 1 1 2 2 2 1 0 1 2 2 2 3 3 3 3 3 4 5 5 5 5 4 5 5 6 6 5 5 4 4 3 3 4 2 3 6 5
6 4 6 5 4 4 7 7 6 6 7 5 3 1 2 5 1 7 6 5 3 2 2 1 1 0 0 2 1 1 1 2 2 2 2 2 3 2 3 2 3 4 4 6 6 7 6 6 6 6 6 6 6 5 5 5 4 4 3 5 7 6
6 5 5 4 4 7 6 5 6 5 4 3 3 2 3 2 2 2 10 2 2 2 1 2 0 0 0 2 2 1 2 3 2 2 2 2 2 2 2 3 4 3 4 5 5 6 7 6 6 6 6 7 7 6 6 6 5 5 5 5 4 3
8 7 5 6 7 7 5 6 6 4 4 3 0 1 1 2 1 2 11 2 2 2 1 1 2 2 2 4 4 3 4 3 2 2 2 3 4 4 5 4 4 5 3 4 4 5 5 6 7 7 7 8 7 8 7 6 6 6 7 4 3 3
6 5 7 6 6 6 4 4 4 3 4 3 2 1 2 2 3 6 9 2 2 2 2 2 1 2 1 2 2 4 3 3 3 3 4 4 4 4 5 5 4 4 5 5 4 4 4 5 6 7 7 7 7 7 8 7 6 6 5 5 6 5
5 4 5 5 5 5 5 5 3 3 4 3 1 2 2 3 4 9 7 2 2 1 3 5 5 6 5 4 4 4 3 4 4 4 5 4 3 4 4 3 4 4 5 6 5 5 4 5 7 7 6 7 8 7 9 9 8 6 4 4 3 2
5 5 4 5 5 5 3 3 2 3 3 2 2 3 3 4 3 9 2 4 4 4 4 4 3 3 3 3 4 4 4 4 5 5 5 4 4 4 4 4 4 4 4 6 6 6 4 7 5 6 8 9 8 5 5 7 2 2 2 3 5 6
6 6 5 5 5 3 3 3 3 3 3 2 4 1 2 4 9 3 3 5 5 5 4 3 3 2 2 4 5 5 5 6 5 5 5 5 4 5 4 5 4 5 5 4 5 5 7 5 6 6 7 6 5 9 6 3 4 9 9 8 5 5
7 7 6 5 5 4 3 3 3 5 3 2 3 3 3 5 9 3 4 4 4 3 3 5 5 5 5 4 4 4 4 4 4 4 4 4 4 5 4 4 4 5 4 5 6 7 6 3 3 6 7 5 7 5 7 4 10 9 8 7 4 5
8 7 6 7 6 4 3 4 4 3 3 4 2 4 3 6 3 4 4 3 4 5 6 6 5 4 5 5 5 4 3 3 2 2 3 3 3 4 5 5 6 5 6 6 7 6 6 4 4 2 2 4 3 2 4 8 9 8 2 7 7 5
7 7 7 8 7 5 3 4 5 3 4 4 4 2 3 2 2 4 3 3 5 5 5 5 5 3 4 4 3 3 3 3 3 3 2 3 3 3 4 5 6 5 7 6 6 7 7 5 5 4 2 1 2 4 7 8 6 7 5 4 6 5
7 6 6 6 7 5 5 5 5 4 6 7 6 5 3 3 3 3 5 4 5 4 4 2 2 3 3 2 3 3 2 3 3 3 3 3 4 5 6 6 6 5 6 5 5 6 7 7 7 4 6 4 2 3 4 4 6 8 11 4 3 6
8 7 6 7 7 5 6 5 5 3 6 6 7 4 6 2 3 4 4 5 4 4 1 1 3 2 2 2 3 3 3 3 4 4 5 6 6 6 5 6 6 6 5 4 4 5 6 5 7 7 7 6 5 5 3 4 4 6 6 10 12 7
9 8 7 8 7 6 5 5 4 5 6 7 6 4 6 1 3 3 4 3 3 2 1 3 3 3 5 5 5 5 5 4 4 5 6 6 5 6 6 6 6 6 5 5 4 4 4 5 6 7 7 7 7 6 6 5 5 5 6 8 8 10
8 8 9 8 7 7 6 6 5 6 7 6 3 8 3 3 3 4 3 2 3 2 3 3 2 4 5 5 5 4 4 5 6 6 5 6 6 6 6 6 6 6 7 6 6 7 6 6 6 5 6 6 7 8 7 5 4 7 5 3 7 10
10 8 8 8 8 8 6 5 5 6 7 5 5 5 3 2 2 2 3 3 4 4 3 3 3 5 6 5 4 4 5 5 6 6 6 5 4 5 5 5 5 6 7 8 7 8 8 8 8 7 9 8 8 8 7 8 9 9 7 6 8 9
12 10 9 8 8 6 7 7 6 8 8 9 7 2 2 3 2 3 2 3 5 5 3 3 5 5 6 5 4 4 5 6 6 5 5 5 4 5 5 6 5 6 7 7 8 8 8 9 10 8 8 8 7 7 8 9 9 9 8 10 9 9
11 10 9 9 8 5 5 5 5 6 6 5 4 4 3 2 2 1 4 6 5 5 4 5 5 5 5 5 4 5 5 5 4 4 5 5 5 5 6 5 6 7 7 8 8 9 8 9 10 9 8 7 7 7 8 7 7 8 7 8 7 9
11 9 9 8 7 7 6 6 5 6 6 5 4 3 3 1 4 5 4 4 4 4 4 6 6 5 3 2 3 5 4 3 4 4 4 4 5 5 6 6 6 7 6 6 7 8 8 8 7 7 6 6 6 6 7 8 8 8 9 9 9 10
12 9 9 8 8 9 7 6 6 7 6 5 5 5 4 4 4 6 5 5 5 5 5 6 4 2 2 2 3 4 4 4 4 3 3 4 5 5 6 6 6 6 6 6 8 9 8 8 8 9 7 8 6 5 6 7 7 7 7 8 8 8
11 9 8 10 9 8 7 6 7 7 7 6 5 4 4 5 5 5 5 5 5 5 5 5 2 2 3 4 4 3 3 3 2 2 2 3 3 4 6 6 5 7 8 7 8 9 7 7 8 9 8 9 7 7 7 6 6 6 6 7 7 7
12 9 9 10 10 8 7 7 7 7 6 6 5 5 5 5 5 5 5 5 5 5 4 2 2 2 3 3 1 1 2 2 2 2 4 4 5 6 6 5 7 9 8 7 6 7 7 8 8 8 8 9 7 6 8 6 6 6 7 6 5 6
Wind_Direction
148 152 154 150 144 143 146 146 144 145 148 148 150 153 159 164 158 161 163 168 168 171 168 159 163 152 153 157 140 133 145 155 151 169 176 190 195 203 212 220 227 232 242 252 260 267 271 267 262 255 251 248 252 271 277 276 277 278 288 151 117 132
154 156 148 150 149 145 151 158 147 148 151 156 159 162 171 173 166 166 176 170 188 202 182 169 191 146 170 142 148 150 153 169 176 173 199 200 207 212 222 228 237 247 249 253 256 262 258 247 239 241 241 243 246 240 255 266 265 274 289 53 126 143
157 138 143 149 150 148 159 172 151 157 154 164 174 171 179 184 179 165 189 179 198 215 194 178 158 161 152 161 149 164 179 182 188 193 197 203 209 215 222 226 228 232 237 245 252 246 250 255 226 220 228 233 232 241 242 253 260 267 284 90 141 157
136 146 152 151 144 154 168 163 163 164 157 178 174 186 181 189 190 172 182 189 208 222 98 75 116 181 148 148 156 174 188 193 197 204 208 214 225 229 231 239 240 238 245 251 247 243 245 249 228 188 199 211 223 232 238 249 260 244 240 217 147 164
143 158 156 148 144 164 170 168 169 171 161 179 176 193 170 198 197 169 186 195 198 122 139 157 159 187 195 183 164 183 184 195 197 216 206 223 213 223 218 238 240 233 240 244 239 241 243 256 219 183 190 210 220 224 227 246 258 257 254 291 137 165
152 170 142 131 152 173 178 171 166 164 165 176 165 189 172 198 187 132 89 119 34 144 45 236 165 182 197 198 169 187 182 191 190 216 177 218 216 226 201 224 236 216 220 239 246 243 249 243 255 185 202 207 222 217 221 242 260 243 233 200 163 166
160 168 139 151 173 167 172 177 176 155 158 184 168 183 182 180 127 140 193 118 53 237 223 257 60 4 315 42 111 140 185 186 178 211 182 218 249 213 214 218 257 259 242 247 262 267 271 294 256 246 253 260 229 223 213 215 241 265 276 190 170 177
170 161 155 168 155 149 183 170 183 157 178 163 165 174 170 129 119 101 83 104 192 213 219 130 170 212 235 275 223 184 192 210 206 195 186 201 215 229 185 204 218 227 222 232 254 289 304 295 301 290 317 306 288 281 264 222 220 252 269 273 149 185
162 148 149 132 122 177 181 148 140 163 176 130 188 144 100 100 106 124 160 188 216 246 152 142 224 195 207 237 235 155 95 283 297 255 221 215 230 263 245 248 253 268 271 276 275 274 279 282 298 302 283 262 269 271 273 268 219 226 253 262 154 184
163 134 116 131 128 198 117 125 109 165 72 123 98 77 100 100 150 152 194 201 239 93 77 300 284 266 234 158 311 343 45 279 222 255 245 278 230 240 273 283 299 283 284 280 275 275 259 263 270 274 275 271 284 289 291 284 272 231 226 238 255 176
160 131 132 128 173 133 135 136 135 206 107 165 140 97 95 151 164 81 77 49 229 220 136 264 287 269 30 340 21 357 271 213 251 275 8 276 318 319 319 295 266 274 287 296 299 293 292 282 268 265 265 276 276 292 289 298 288 296 276 231 238 70
168 139 141 164 150 124 153 135 176 138 125 193 103 95 141 144 75 61 232 191 237 262 210 144 253 321 151 233 323 322 279 324 312 296 338 343 325 332 307 300 314 306 283 280 276 274 268 271 279 282 285 274 264 253 268 292 291 274 264 251 183 82
138 110 157 146 115 130 152 159 168 109 180 91 99 120 169 97 115 190 196 188 209 223 195 224 358 321 293 243 192 214 274 306 284 312 8 0 325 290 268 270 266 284 277 269 276 276 276 275 278 279 280 282 278 255 258 254 233 284 297 78 191 188
112 121 177 118 111 163 158 135 141 149 108 113 123 101 99 49 217 202 180 200 214 189 213 45 165 208 287 337 281 167 243 247 273 35 295 252 271 289 297 300 298 293 297 310 302 294 291 289 288 293 294 304 301 295 298 283 291 275 285 275 164 215
115 145 154 105 136 169 137 162 134 115 123 136 69 53 14 300 299 292 176 233 176 206 184 171 169 259 22 279 270 251 15 19 35 348 295 323 323 282 282 310 323 320 320 309 303 302 301 297 300 300 297 290 289 290 261 247 257 255 267 270 249 198
118 150 120 119 175 147 167 102 72 60 51 40 44 27 305 10 352 312 277 209 191 158 217 146 345 137 222 287 339 358 327 57 1 270 355 341 301 306 336 328 329 327 319 311 305 303 304 303 303 301 300 296 291 282 277 279 263 274 259 283 275 256
144 144 126 155 166 110 52 51 57 52 56 62 79 105 74 332 30 305 271 229 147 198 161 118 138 218 121 271 246 307 44 30 344 6 337 326 310 334 316 332 338 335 328 321 321 317 321 323 316 311 308 305 305 306 299 290 271 248 228 233 250 263
139 136 138 164 96 63 66 72 62 71 80 49 6 53 50 329 320 313 285 231 173 107 142 102 169 43 70 288 306 50 11 44 342 20 328 289 282 304 351 15 342 333 329 319 315 317 316 312 310 311 314 316 309 306 302 294 287 277 262 254 248 290
143 154 153 89 81 83 81 78 86 106 112 112 213 28 108 241 80 353 285 263 71 97 63 89 51 39 28 4 346 23 36 2 360 322 309 342 356 356 9 358 337 323 315 307 303 305 306 313 314 313 310 303 299 294 287 278 276 279 274 273 280 231
103 94 96 102 97 97 106 100 117 112 111 109 82 355 34 347 37 282 247 266 96 57 89 70 62 50 39 29 354 8 29 341 4 348 12 359 3 350 345 338 322 322 323 313 303 300 316 320 312 307 306 305 299 292 284 279 269 264 269 276 278 274
104 95 112 120 116 125 131 133 132 123 107 85 121 101 26 37 23 273 236 116 85 115 63 37 26 32 14 8 12 18 9 1 9 3 9 351 347 334 326 318 322 328 327 330 327 338 326 339 320 317 322 305 303 293 282 278 270 266 275 296 317 335
122 116 106 103 104 110 115 106 141 117 99 103 46 55 64 38 282 257 19 46 42 29 48 56 45 20 32 14 3 11 7 360 5 11 348 342 337 334 326 332 339 338 347 336 327 318 347 359 339 331 323 320 305 300 304 292 314 5 344 264 244 249
126 120 116 117 115 122 118 122 106 95 109 77 97 122 150 93 260 239 46 45 33 25 17 28 47 8 44 36 16 17 12 10 2 0 349 336 346 331 339 344 348 351 338 333 319 338 357 21 322 321 306 292 324 327 324 323 31 336 325 300 266 258
122 119 129 122 112 105 80 93 108 111 123 135 150 146 60 192 233 79 58 55 46 20 29 18 29 10 24 35 22 19 18 354 344 355 337 330 342 343 335 338 345 341 337 339 350 333 330 331 318 338 341 340 306 305 314 352 329 315 299 294 295 272
129 127 136 127 122 120 122 123 91 104 80 44 2 54 197 208 114 96 87 55 45 21 28 25 24 6 19 27 20 13 4 318 328 327 332 326 336 333 336 340 343 344 356 6 338 325 320 341 334 7 348 327 323 314 336 313 329 291 351 334 308 307
133 134 135 135 126 133 145 97 82 51 58 33 21 15 248 163 96 76 79 74 50 33 32 32 8 13 28 33 8 353 343 325 325 334 323 320 305 340 337 348 358 354 356 358 344 328 331 340 338 344 72 166 156 275 311 321 322 317 327 255 316 308
126 119 116 121 130 141 112 93 94 107 89 83 46 345 311 62 83 86 89 79 70 46 36 35 8 22 10 36 9 335 332 325 342 328 325 318 356 8 1 347 356 0 348 341 345 339 337 340 333 354 354 338 275 261 257 309 327 307 324 341 325 326
118 123 124 125 132 115 114 115 117 123 94 97 98 300 283 71 84 80 67 70 79 72 16 14 52 17 318 38 14 349 352 1 349 352 346 13 11 7 358 347 350 354 345 350 347 337 335 351 351 336 346 333 321 307 308 270 280 304 299 318 326 332
123 129 128 132 133 121 112 113 117 105 97 95 104 222 237 91 87 85 87 83 79 105 106 49 41 5 6 33 20 8 2 1 2 8 13 12 9 356 353 344 349 350 348 345 350 344 346 357 350 351 342 341 329 342 340 338 319 334 337 323 318 335
118 131 136 127 115 116 112 120 111 101 94 97 118 228 221 126 97 95 90 108 128 100 78 80 45 42 32 23 16 13 5 6 19 20 17 9 360 352 345 344 346 353 350 356 10 358 12 2 356 346 350 344 349 346 346 341 352 346 335 330 323 323
128 121 112 108 106 102 109 125 123 128 123 112 176 218 174 126 92 112 142 179 117 96 62 47 53 55 43 18 20 13 9 22 29 22 12 359 349 350 337 344 356 356 359 13 18 7 16 15 10 5 8 6 357 352 356 347 341 343 342 333 329 331
128 123 114 112 115 130 146 147 158 146 143 164 195 178 93 112 153 158 195 161 132 116 109 76 57 55 37 20 11 18 20 26 25 14 3 344 357 342 353 354 358 11 10 18 22 18 23 16 17 8 9 4 354 348 358 360 347 339 342 339 334 323
126 121 117 122 130 144 130 124 107 95 90 87 91 98 96 106 216 108 41 42 44 72 65 63 56 47 38 20 12 22 30 28 5 3 3 357 353 355 3 359 24 15 16 13 28 24 19 21 17 6 4 359 352 353 2 352 338 336 336 334 335 331
126 121 125 132 146 139 119 107 103 99 91 83 80 88 76 38 48 59 67 65 56 58 75 69 58 51 42 21 35 52 37 20 9 14 16 359 347 9 8 24 26 19 16 12 34 31 19 20 17 2 2 1 355 359 2 348 339 345 347 342 345 342
132 134 137 139 122 113 110 108 100 97 94 91 89 85 71 42 46 69 65 58 34 39 63 72 58 54 43 44 42 67 52 32 22 20 11 5 8 26 30 20 27 16 14 18 37 32 12 16 8 356 359 6 349 5 0 355 347 352 348 348 338 337
136 142 138 122 112 102 98 95 89 88 87 85 95 91 73 57 60 56 69 68 61 53 66 74 59 82 59 47 41 54 58 75 56 35 21 24 38 38 31 25 28 24 25 22 33 30 13 13 1 360 5 9 358 4 349 349 346 348 356 345 338 339
134 137 122 109 102 98 92 87 92 100 107 108 97 89 93 91 77 70 75 80 82 74 72 87 103 78 79 77 77 142 129 120 96 56 37 24 45 45 39 22 32 35 27 24 24 30 19 17 3 4 4 12 360 356 345 345 350 3 355 344 341 350